IRIDIUM 12

Last updated on Wed Nov 29 2017 00:19:02 GMT+0000 (Coordinated Universal Time)

1 24837U 97030B 17332.36135087 .00000162 00000-0 50769-4 0 9992 2 24837 86.3948 281.4298 0002149 82.9425 83.1589 14.34219099 70478
UTC large
Height (km)
Speed (km/s)
/
Latitude / Longitude
Inclination (degrees)
Orbital Period (minutes)
Azimuth
Elevation
Range (km)
Doppler Factor

Next 0 passes for location: London (51.5072 / 0.1276)

Sorry there are no passes over London.